Powrót do katalogu

SL-8 R/B

AktywnyPO
NORAD 12836·ROCKET BODY·🇷🇺 Russia

Wystrzelony Sep 18, 1981 z Plesetsk Cosmodrome

Loading…

Następne Przeloty (najbliższe 24 godziny)

TLE

ŚwieżeSource: Space-Track

Epoka: Sep 14, 2026, 12:50 UTC

1 12836U 81091B   26257.53478100 -.00000062  00000-0 -79024-4 0  9995
2 12836  82.9140  82.2370 0024031 111.8284 273.0917 13.76803784643237

Śledź SL-8 R/B w czasie rzeczywistym z AllMySat

Download on the App Store